Torna al catalogo

STARLINK-34362

AttivoComunicazioniVLEO
NORAD 64292·PAYLOAD·🇺🇸 United States

Lanciato Jun 8, 2025 da Vandenberg Space Force Base

Loading…

Prossimi Passaggi (prossime 24 ore)

TLE

AggiornatoSource: CelesTrak SupGP

Epoca: Sep 15, 2026, 02:33 UTC

1 64292C 25123B   26258.10673611 -.00051472  00000+0 -17908-2 0  2589
2 64292  69.9998  75.3695 0003243 270.9882 286.1376 15.29600711    14

Traccia STARLINK-34362 in tempo reale con AllMySat

Download on the App Store